This demonstration page uses our WeatherBlox Daily Observations layout. Learn more.

Hourly Observations for February 25, 2015

Temp ( °F °C ) Dew Point ( °F °C ) Humidity (%) Winds ( mph kmh ) Pressure ( in mb ) Visibility ( mi km ) Precip ( " mm )
12:15 am 00:15 Clear 31 -0.5 22 -5.8 68 68 SSW 7 11 29.88 1012 10 16.0934 0 0
12:35 am 00:35 Clear 31 -0.5 23 -5.1 71 71 SSW 7 11 29.88 1012 10 16.0934 0 0
12:55 am 00:55 Clear 31 -0.5 24 -4.6 74 74 SW 7 11 29.88 1012 10 16.0934 0 0
1:15 am 01:15 Clear 32 0 25 -3.7 76 76 SW 8 13 29.88 1012 10 16.0934 0 0
1:35 am 01:35 Clear 33 0.5 26 -3.5 75 75 WSW 9 15 29.85 1011 10 16.0934 0 0
1:55 am 01:55 Clear 33 0.5 25 -3.7 74 74 WSW 8 13 29.85 1011 10 16.0934 0 0
2:15 am 02:15 Clear 33 0.3 25 -3.7 75 75 WSW 8 13 29.88 1012 10 16.0934 0 0
2:35 am 02:35 Clear 33 0.4 25 -3.9 73 73 SW 9 15 29.88 1012 10 16.0934 0 0
2:55 am 02:55 Clear 31 -0.5 25 -4.1 77 77 SW 9 15 29.85 1011 10 16.0934 0 0
3:15 am 03:15 Clear 32 0 25 -4 75 75 SW 9 15 29.85 1011 10 16.0934 0 0
3:35 am 03:35 Clear 32 0 25 -4.1 74 74 SW 9 15 29.85 1011 10 16.0934 0 0
3:55 am 03:55 Clear 31 -0.3 24 -4.5 74 74 WSW 8 13 29.83 1010 10 16.0934 0 0
4:15 am 04:15 Clear 31 -0.5 24 -4.4 75 75 WSW 9 15 29.83 1010 10 16.0934 0 0
4:35 am 04:35 Clear 31 -0.5 24 -4.5 75 75 WSW 8 13 29.83 1010 10 16.0934 0 0
4:55 am 04:55 Clear 30 -1 23 -5 75 75 WSW 8 13 29.83 1010 10 16.0934 0 0
5:15 am 05:15 Clear 30 -1.1 24 -4.7 77 77 WSW 8 13 29.83 1010 10 16.0934 0 0
5:35 am 05:35 Clear 30 -1.2 23 -5 76 76 WSW 7 11 29.83 1010 10 16.0934 0 0
5:55 am 05:55 Clear 29 -1.8 23 -5 79 79 SW 6 9 29.83 1010 10 16.0934 0 0
6:15 am 06:15 Clear 29 -1.7 23 -5 78 78 SW 8 13 29.83 1010 10 16.0934 0 0
6:35 am 06:35 Clear 29 -1.6 23 -5 78 78 WSW 6 9 29.83 1010 10 16.0934 0 0
6:55 am 06:55 Partly Cloudy 31 -0.5 23 -4.8 73 73 WSW 8 13 29.83 1010 10 16.0934 0 0
7:15 am 07:15 Partly Cloudy 31 -0.3 23 -5 71 71 WSW 9 15 29.83 1010 10 16.0934 0 0
7:35 am 07:35 Sunny 31 -0.8 23 -5.1 73 73 WSW 7 11 29.83 1010 10 16.0934 0 0
7:55 am 07:55 Sunny 31 -0.5 23 -5 72 72 W 8 13 29.83 1010 10 16.0934 0 0
8:15 am 08:15 Partly Cloudy 31 -0.5 23 -4.8 73 73 W 8 13 29.85 1011 10 16.0934 0 0
8:35 am 08:35 Mostly Cloudy 35 1.9 25 -3.8 66 66 W 6 9 29.8 1009 10 16.0934 0 0
8:55 am 08:55 Mostly Cloudy with Light Drizzle 38 3.5 27 -2.8 64 64 WNW 6 9 29.77 1008 10 16.0934 0 0
9:15 am 09:15 Cloudy with Light Drizzle 40 4.6 30 -1 67 67 NW 8 13 29.8 1009 10 16.0934 0 0
9:35 am 09:35 Cloudy 44 6.4 31 -0.5 62 62 NW 14 22 29.8 1009 10 16.0934 0 0
9:55 am 09:55 Cloudy 45 7 32 -0.1 61 61 NNW 12 19 29.77 1008 10 16.0934 0 0
10:15 am 10:15 Cloudy 46 7.6 32 0 59 59 NNW 20 31 29.8 1009 10 16.0934 0 0
10:35 am 10:35 Mostly Cloudy 47 8.5 31 -0.5 53 53 NNW 20 31 29.8 1009 10 16.0934 0 0
10:55 am 10:55 Partly Cloudy 47 8.1 31 -0.6 55 55 NNW 23 37 29.8 1009 10 16.0934 0 0
11:15 am 11:15 Partly Cloudy 45 7.3 29 -1.5 54 54 N 21 33 29.83 1010 10 16.0934 0 0
11:35 am 11:35 Partly Cloudy 45 7.3 31 -0.7 57 57 N 26 43 29.83 1010 10 16.0934 0 0
11:55 am 11:55 Mostly Cloudy 45 7.3 31 -0.3 59 59 N 25 41 29.83 1010 10 16.0934 0 0
12:15 pm 12:15 Mostly Cloudy 46 8 31 -0.7 55 55 N 29 46 29.8 1009 10 16.0934 0 0
12:35 pm 12:35 Mostly Cloudy 46 7.9 31 -0.7 55 55 N 30 48 29.8 1009 10 16.0934 0 0
12:55 pm 12:55 Partly Cloudy 45 7.1 29 -1.9 53 53 N 35 56 29.85 1011 10 16.0934 0 0
1:15 pm 13:15 Mostly Cloudy 43 6.2 28 -2.2 55 55 N 29 46 29.85 1011 10 16.0934 0 0
1:35 pm 13:35 Cloudy 41 5.2 28 -2.3 59 59 N 28 44 29.85 1011 10 16.0934 0 0
1:55 pm 13:55 Cloudy 41 4.9 27 -3 57 57 N 32 52 29.88 1012 10 16.0934 0 0
2:15 pm 14:15 Cloudy 40 4.5 26 -3.3 57 57 N 30 48 29.88 1012 10 16.0934 0 0
2:35 pm 14:35 Cloudy 39 4.1 25 -3.7 57 57 N 30 48 29.94 1014 10 16.0934 0 0
2:55 pm 14:55 Cloudy 39 3.8 25 -4 57 57 N 29 46 29.94 1014 10 16.0934 0 0
3:15 pm 15:15 Cloudy 36 2.2 23 -4.8 60 60 N 25 41 29.97 1015 10 16.0934 0 0
3:35 pm 15:35 Cloudy 33 0.8 22 -5.7 62 62 N 30 48 30.03 1017 10 16.0934 0 0
3:55 pm 15:55 Cloudy 32 -0.2 20 -6.9 61 61 N 29 46 30.03 1017 10 16.0934 0 0
4:15 pm 16:15 Mostly Cloudy 32 -0.1 19 -7.2 59 59 N 26 43 30.03 1017 10 16.0934 0 0
4:35 pm 16:35 Partly Cloudy 29 -1.6 17 -8.5 60 60 N 26 43 30.09 1019 10 16.0934 0 0
4:55 pm 16:55 Partly Cloudy 28 -2.1 16 -8.7 61 61 N 30 48 30.12 1020 10 16.0934 0 0
5:15 pm 17:15 Mostly Cloudy 25 -3.8 15 -9.6 64 64 N 28 44 30.15 1021 10 16.0934 0 0
5:35 pm 17:35 Cloudy 25 -4.1 14 -10 64 64 NNE 26 43 30.18 1022 10 16.0934 0 0
5:55 pm 17:55 Cloudy 24 -4.5 14 -10.2 65 65 N 21 33 30.18 1022 10 16.0934 0 0
6:15 pm 18:15 Cloudy 23 -5.2 13 -10.6 66 66 N 18 30 30.21 1023 10 16.0934 0 0
6:35 pm 18:35 Cloudy 23 -5.2 13 -10.5 67 67 N 24 39 30.21 1023 10 16.0934 0 0
6:55 pm 18:55 Cloudy 22 -5.4 13 -10.5 68 68 N 21 33 30.21 1023 10 16.0934 0 0
7:15 pm 19:15 Cloudy 21 -6.1 13 -10.8 70 70 NNE 21 33 30.27 1025 10 16.0934 0 0
7:35 pm 19:35 Cloudy 20 -6.5 12 -11.2 70 70 NNE 17 28 30.3 1026 10 16.0934 0 0
7:55 pm 19:55 Cloudy 19 -7 11 -11.8 69 69 N 21 33 30.3 1026 10 16.0934 0 0
8:15 pm 20:15 Cloudy 19 -7.4 10 -12.4 68 68 N 23 37 30.3 1026 10 16.0934 0 0
8:35 pm 20:35 Cloudy 18 -7.7 9 -12.7 68 68 N 22 35 30.3 1026 10 16.0934 0 0
8:55 pm 20:55 Cloudy 18 -8 9 -13 68 68 N 21 33 30.36 1028 10 16.0934 0 0
9:15 pm 21:15 Cloudy 17 -8.3 8 -13.3 68 68 N 24 39 30.39 1029 10 16.0934 0 0
9:35 pm 21:35 Cloudy 16 -8.7 7 -13.7 67 67 N 25 41 30.39 1029 10 16.0934 0 0
9:55 pm 21:55 Cloudy 16 -8.7 7 -13.7 67 67 N 18 30 30.39 1029 10 16.0934 0 0
10:15 pm 22:15 Cloudy 17 -8.6 8 -13.6 67 67 N 22 35 30.42 1030 10 16.0934 0 0
10:35 pm 22:35 Cloudy 16 -8.7 8 -13.6 68 68 N 21 33 30.42 1030 10 16.0934 0 0
10:55 pm 22:55 Cloudy 15 -9.2 7 -14 68 68 N 17 28 30.42 1030 10 16.0934 0 0
11:15 pm 23:15 Cloudy 15 -9.3 7 -13.7 71 71 N 17 28 30.42 1030 10 16.0934 0 0
11:35 pm 23:35 Cloudy 15 -9.3 7 -14 69 69 N 21 33 30.42 1030 10 16.0934 0 0
11:55 pm 23:55 Cloudy 15 -9.5 6 -14.3 68 68 N 22 35 30.42 1030 10 16.0934 0 0

Powered by AerisWeather